Volver al catálogo

SL-8 R/B

ActivoPO
NORAD 9738·ROCKET BODY·🇷🇺 Russia

Lanzado Jan 20, 1977 desde Plesetsk Cosmodrome

Loading…

Próximos Pases (próximas 24 horas)

TLE

ActualizadoSource: Space-Track

Época: Sep 14, 2026, 10:46 UTC

1 09738U 77004B   26257.44912928  .00000152  00000-0  14588-3 0  9993
2 09738  82.9604  54.1251 0015664 217.1585 155.0005 13.73931632488179

Sigue SL-8 R/B en tiempo real con AllMySat

Download on the App Store